GAOFEN 1-04

Last updated on Tue Nov 21 2023 00:02:24 GMT+0000 (Coordinated Universal Time)

1 43262U 18031D 23324.52940466 .00000945 00000+0 14270-3 0 9994 2 43262 97.8483 33.2773 0004285 143.0056 217.1450 14.76533890304026

Satellite not in orbit

GAOFEN 1-04